Showing default

YAOGAN-43 02F, 60950

Orbit data source: Space-Track

YAOGAN-43 02F, 60950 is a payload satellite owned by PLA GAD (CN) in LEO that was launched on Tue, 03 Sep 2024 UTC via a CHANG ZHENG 4B launch vehicle from the Xichang Space Center, China (XSC). Payloads include a variety of satellites, spacecraft, and rockets equipped with specific instruments for various scientific and technological missions. These include communications satellites like Starlink; space stations such as the ISS; scientific satellites like the Hubble; Earth observation satellites from companies like Planet Labs, Umbra, and HawkEye 360; GPS; miniature CubeSats for education and research; and military/defense satellites.

Loading next visibility...
YAOGAN-43 02F details
Identifier
60950, 2024-156F
Orbit
LEO
Last TLE update8 hours ago
Origin
Flag of CNPLA GAD (CN / PRC)
ManufacturerSAST
MissionOperational spacecraft
Bus & MotorUnknown
Mass~300 kg wet, ~300 kg dry
Launch date (UTC)
2024-09-03 (4 months ago)
Launch vehicle
CHANG ZHENG 4B
Launch site
Xichang Space Center, China (XSC)
Object type
Payload
Rocket body
Debris
Shape & HBRUnknown
Radar Cross SectionLarge (>1 m²)

Expand to show TLE details & history

TLE from 8 hours ago
0 YAOGAN-43 02F
1 60950U 24156F   25014.86618108  .00012483  00000-0  52246-3 0  9998
2 60950  34.9911 217.8383 0001453 354.2416   5.8282 15.22765231 20370
Epoch: 2025-01-14T20:47Z
Definitive object data (Epoch: 2025-01-14T20:47:18.045Z)
Latitude0.00002°
Longitude151.4464°
Altitude495.417 km
Speed7.62 km/s
True Right ascension14h 31m 21s
True Declination0° 00' 00"
Sunlit
Object was in daylight at TLE epoch
Visualization TLE readout
Latitude20.41635°
Longitude-178.73083°
Altitude495.228 km
Speed7.622 km/s
Apparent Right ascension16h 55m 29s
Apparent Declination-8° 31' 31"
Sunlit
Object is in daylight
Visualization observer readout
Local Sidereal Time05:28:13
Azimuth15.303° NNE
Elevation-57.77°
Doppler factor1
Orbital elements
Apogee altitude501.755 km
Perigee altitude499.756 km
Semi-major axis6,878.892 km
Eccentricity0.0001453
Inclination34.9911°
RAAN217.8383°
Arg. of periapsis354.2416°
True anomaly5.82989°
Mean anomaly5.8282°
Eccentric anomaly5.82905°
Mean motion3.80422 °/min
BSTAR0.00052246
Orbital period94.63 mins
Loading maneuver chart data...
Loading historical data...
Loading historical data...
Loading historical data...
Loading historical data...
Loading historical data...
Loading historical data...
Loading historical data...

YAOGAN-43 02F Visibility forecast

Observer location: undefined°, undefined

Span
Click to sort rows by Start time (UTC) header in descending order
Start Az.
Max El. time (UTC)
Max El. Az.
Max El.
End time (UTC)
End Az.
5 mins2025-01-15 17:30:06.430Z209.298° SW2025-01-15 17:32:06.430Z171.354° S21.85°2025-01-15 17:35:06.430Z112.546° SE
5 mins2025-01-15 19:10:06.430Z230.12° WSW2025-01-15 19:12:06.430Z167.831° S31.702°2025-01-15 19:15:06.430Z110.669° ESE
5 mins2025-01-15 20:49:06.430Z243.569° WSW2025-01-15 20:51:06.430Z200.391° SSW25.955°2025-01-15 20:54:06.430Z136.699° SSE
|